Location: Bower School (historical)
(37.8389°N, 89.5348°W)
Time: 03:34:54
(UTC+00:00)

Cosmos 1953 Rocket - Pass Details

Date: 11 December 2025
Orbit: 598 x 627 km, 82.5° (Epoch: 21 January)

Event Time Altitude Azimuth Distance (km) Brightness Sun altitude
Rises 23:40:58 0° 360° (N) 2,915 6.8 -11.9°
Reaches altitude 10° 23:43:18 10° 7° (N) 2,007 5.9 -12.3°
Maximum altitude 23:47:33 44° 79° (E) 871 3.9 -13.1°
Drops below altitude 10° 23:51:47 10° 152° (SSE) 1,996 6.1 -13.9°
Sets 23:54:06 0° 159° (SSE) 2,897 7.0 -14.4°
